Flight Track Log - Related Links

Times and Time Zones

All times are in EDT time to prevent confusion due to time zone crossing. See the JIA2491 flight status page for this flight to view local times or setup timezone preferences in your user account.

Time Position Orientation Groundspeed Altitude Reporting Facility
EDT Latitude Longitude Course Direction KTS MPH feet Rate Location/Type
Wed 10:32:44 AM 38.9000 -77.0833 270° West 174 200 2,700  Level Potomac TRACON
Wed 10:33:44 AM 38.9500 -77.1333 322° Northwest 228 262 4,900 2,293 Climbing Potomac TRACON
Wed 10:34:00 AM 38.8500 -77.4455 270° West  Level FlightAware Approximate
Wed 10:35:00 AM 38.8500 -77.5828 270° West  Level FlightAware Approximate
Wed 10:35:55 AM 39.0369 -77.2778 308° West 263 303 10,000  Level Washington Center
Wed 10:36:00 AM 38.8500 -77.7202 270° West  Level FlightAware Approximate
Wed 10:36:55 AM 39.0272 -77.3819 263° West 263 303 12,100  Level Washington Center
Wed 10:37:00 AM 38.8501 -77.8576 270° West  Level FlightAware Approximate
Wed 10:37:54 AM 39.0025 -77.4933 254° West 287 330 13,600  Level Washington Center
Wed 10:38:55 AM 38.9778 -77.6131 255° West 333 383 14,600 1,041 Climbing Washington Center
Wed 10:39:55 AM 38.9503 -77.7483 255° West 360 414 15,700 1,041 Climbing Washington Center
Wed 10:40:56 AM 38.9250 -77.8783 256° West 371 427 16,700 1,008 Climbing Washington Center
Wed 10:41:54 AM 38.8975 -78.0056 255° West 376 433 17,700 1,017 Climbing Washington Center
Wed 10:42:54 AM 38.8697 -78.1353 255° West 376 433 18,700 900 Climbing Washington Center
Wed 10:43:54 AM 38.8544 -78.2653 261° West 376 433 19,500 793 Climbing Washington Center
Wed 10:44:55 AM 38.8536 -78.3986 270° West 371 427 20,300 787 Climbing Washington Center
Wed 10:45:56 AM 38.8503 -78.5317 268° West 371 427 21,100 787 Climbing Washington Center
Wed 10:46:57 AM 38.8511 -78.6678 270° West 371 427 21,900 814 Climbing Washington Center
Wed 10:47:54 AM 38.8475 -78.8036 268° West 376 433 22,700 661 Climbing Washington Center
Wed 10:48:55 AM 38.8458 -78.9394 269° West 381 438 23,200 492 Climbing Washington Center
Wed 10:49:56 AM 38.8442 -79.0781 269° West 381 438 23,700 504 Climbing Washington Center
Wed 10:50:54 AM 38.8400 -79.2192 268° West 386 444 24,200 504 Climbing Washington Center
Wed 10:51:55 AM 38.8419 -79.3578 271° West 391 450 24,700 545 Climbing Washington Center
Wed 10:52:55 AM 38.8372 -79.5014 268° West 396 456 25,300 500 Climbing Washington Center
Wed 10:53:55 AM 38.8350 -79.6344 269° West 403 464 25,700 477 Climbing Washington Center
Wed 10:55:51 AM 38.8250 -79.9081 267° West 402 463 26,700 506 Climbing Indianapolis Center
Wed 10:56:53 AM 38.8217 -80.0492 268° West 397 457 27,200 537 Climbing Indianapolis Center
Wed 10:57:54 AM 38.8169 -80.1981 268° West 398 458 27,800 488 Climbing Indianapolis Center
Wed 10:58:56 AM 38.8139 -80.3311 268° West 395 455 28,200 532 Climbing Indianapolis Center
Wed 10:59:58 AM 38.8092 -80.4992 268° West 393 452 28,900 581 Climbing Indianapolis Center
Wed 11:01:00 AM 38.8047 -80.6392 268° West 394 453 29,400 435 Climbing Indianapolis Center
Wed 11:02:02 AM 38.8011 -80.7789 268° West 393 452 29,800 290 Climbing Indianapolis Center
Wed 11:03:04 AM 38.7961 -80.9200 267° West 395 455 30,000 98 Climbing Indianapolis Center
Wed 11:04:05 AM 38.7917 -81.0642 268° West 404 465 30,000  Level Indianapolis Center
Wed 11:05:07 AM 38.7856 -81.2119 267° West 414 476 30,000 -387 Level Indianapolis Center
Wed 11:06:09 AM 38.7594 -81.3619 257° West 430 495 29,200 -968 Descending Indianapolis Center
Wed 11:07:11 AM 38.7267 -81.5489 257° West 448 516 28,000 -1,016 Descending Indianapolis Center
Wed 11:08:13 AM 38.7011 -81.6928 257° West 451 519 27,100 -871 Descending Indianapolis Center
Wed 11:09:15 AM 38.6731 -81.8464 257° West 448 516 26,200 -726 Descending Indianapolis Center
Wed 11:10:17 AM 38.6450 -82.0003 257° West 444 511 25,600 -634 Descending Indianapolis Center
Wed 11:11:18 AM 38.6103 -82.1839 256° West 443 510 24,900 -634 Descending Indianapolis Center
Wed 11:12:20 AM 38.5819 -82.3364 257° West 443 510 24,300 -823 Descending Indianapolis Center
Wed 11:13:22 AM 38.5519 -82.4986 257° West 445 512 23,200 -1,016 Descending Indianapolis Center
Wed 11:14:24 AM 38.5233 -82.6489 256° West 438 504 22,200 -968 Descending Indianapolis Center
Wed 11:15:26 AM 38.4956 -82.7958 256° West 429 494 21,200 -1,065 Descending Indianapolis Center
Wed 11:16:28 AM 38.4678 -82.9369 256° West 412 474 20,000 -1,306 Descending Indianapolis Center
Wed 11:17:30 AM 38.4797 -83.0775 276° West 405 466 18,500 -1,610 Descending Indianapolis Center
Wed 11:18:31 AM 38.5039 -83.2344 281° West 387 445 16,700 -1,610 Descending Indianapolis Center
Wed 11:19:33 AM 38.5253 -83.3628 282° West 375 432 15,200 -1,452 Descending Indianapolis Center
Wed 11:20:35 AM 38.5450 -83.4856 282° West 360 414 13,700 -1,306 Descending Indianapolis Center
Wed 11:21:37 AM 38.5636 -83.6053 281° West 347 399 12,500 -1,403 Descending Indianapolis Center
Wed 11:22:39 AM 38.5825 -83.7239 282° West 341 392 10,800 -1,161 Descending Indianapolis Center
Wed 11:23:41 AM 38.6017 -83.8403 282° West 335 386 10,100 -341 Descending Indianapolis Center
Wed 11:24:42 AM 38.6425 -83.9728 292° West 346 398 10,100 -98 Level Indianapolis Center
Wed 11:25:44 AM 38.6894 -84.0669 303° West 355 409 9,900 -97 Descending Indianapolis Center
Wed 11:26:46 AM 38.7447 -84.1733 304° West 355 409 9,900  Level Indianapolis Center
Wed 11:27:48 AM 38.8081 -84.2961 304° West 351 404 9,900  Level Indianapolis Center
Wed 11:28:50 AM 38.8633 -84.4039 303° West 355 409 9,900  Level Indianapolis Center
Wed 11:29:52 AM 38.9175 -84.5097 303° West 352 405 9,900 -387 Level Indianapolis Center
Wed 11:30:54 AM 38.9842 -84.5403 340° North 262 302 9,100 -1,306 Descending Indianapolis Center
Wed 11:31:56 AM 39.0425 -84.5397 360° North 217 250 7,200 -2,129 Descending Indianapolis Center
Wed 11:32:58 AM 39.1011 -84.5411 359° North 210 242 4,700 -2,419 Descending Indianapolis Center

Login

Don't have an account? Register now (free) for customized features, flight alerts, and more!